EST,Max TemperatureF,Mean TemperatureF,Min TemperatureF,Max Dew PointF,MeanDew PointF,Min DewpointF,Max Humidity, Mean Humidity, Min Humidity, Max Sea Level PressureIn, Mean Sea Level PressureIn, Min Sea Level PressureIn, Max VisibilityMiles, Mean VisibilityMiles, Min VisibilityMiles, Max Wind SpeedMPH, Mean Wind SpeedMPH, Max Gust SpeedMPH,PrecipitationIn, CloudCover, Events, WindDirDegrees
2012-11-1,59,52,46,43,40,37,77,66,51,29.57,29.54,29.50,10,10,10,10,3,22,0.00,5,,222
2012-11-2,55,50,46,41,38,33,77,64,52,29.60,29.56,29.53,10,10,10,15,5,20,0.01,7,,274
2012-11-3,55,50,44,34,32,29,68,56,43,29.80,29.70,29.62,10,10,10,14,8,22,0.00,4,,295
2012-11-4,55,44,33,34,31,28,89,63,43,29.94,29.87,29.80,10,10,10,10,5,18,0.00,0,,297
2012-11-5,48,38,28,28,22,17,72,50,35,30.14,30.02,29.95,10,10,10,12,7,17,0.00,5,,327
2012-11-6,44,32,21,24,17,11,85,62,27,30.24,30.20,30.15,10,10,10,8,2,18,0.00,0,,345
2012-11-7,46,37,28,34,30,24,89,78,58,30.15,29.91,29.74,10,5,0,22,11,32,0.42,8,Fog-Rain-Snow,8
2012-11-8,41,37,33,36,32,29,87,82,67,29.75,29.67,29.60,10,5,2,20,15,36,0.12,8,Rain-Snow,357
2012-11-9,55,44,32,31,26,19,75,52,24,30.11,29.93,29.75,10,10,10,13,9,22,0.00,2,,317
2012-11-10,57,44,30,35,28,24,88,63,30,30.46,30.29,30.11,10,10,10,8,3,,0.00,0,,330
2012-11-11,64,47,30,47,41,28,89,73,43,30.52,30.46,30.41,10,10,7,13,3,,0.00,3,,186
2012-11-12,69,58,48,59,52,46,94,80,56,30.48,30.40,30.23,10,7,2,14,5,22,0.00,3,,187
2012-11-13,66,54,42,61,47,30,87,80,62,30.41,30.24,30.12,10,9,3,15,9,23,0.35,8,Rain,295
2012-11-14,48,39,30,30,26,24,82,59,38,30.53,30.48,30.41,10,10,10,12,6,18,0.00,1,,7
2012-11-15,44,37,30,30,28,26,85,70,55,30.45,30.39,30.31,10,10,10,16,6,76,0.00,5,,4
2012-11-16,46,37,27,31,28,24,92,75,47,30.44,30.33,30.29,10,10,9,8,1,,0.00,0,,357
2012-11-17,48,36,23,32,26,20,100,83,50,30.66,30.59,30.43,10,6,0,9,1,,0.00,0,Fog,29
2012-11-18,48,34,21,32,25,17,92,77,48,30.72,30.67,30.62,10,8,1,9,1,17,0.00,0,,53
2012-11-19,50,36,21,36,27,19,96,82,58,30.61,30.42,30.28,10,6,0,8,1,,0.00,2,Fog,32
2012-11-20,50,36,21,37,26,18,100,86,58,30.27,30.20,30.14,10,5,0,12,1,,0.00,1,Fog,44
2012-11-21,50,38,26,41,34,26,100,83,61,30.25,30.21,30.16,10,8,0,10,2,20,0.00,3,Fog,2
2012-11-22,54,41,28,40,32,27,100,89,55,30.28,30.22,30.14,10,4,0,6,0,,0.00,3,Fog,72
2012-11-23,54,40,26,44,35,24,100,89,62,30.14,29.97,29.65,10,5,0,9,2,,0.00,4,Fog,180
2012-11-24,46,40,32,44,25,13,97,56,33,29.67,29.59,29.54,10,10,4,18,8,29,0.00,4,,279
2012-11-25,39,32,25,22,17,14,75,52,39,29.88,29.78,29.68,10,10,10,18,10,29,0.00,2,,266
2012-11-26,46,35,24,23,20,17,81,58,31,30.25,30.05,29.89,10,10,10,17,6,24,0.00,1,,260
2012-11-27,36,30,25,34,31,20,100,92,78,30.33,30.28,30.22,10,4,1,5,0,,0.12,7,Snow,329
2012-11-28,37,29,21,32,26,19,93,80,57,30.21,30.17,30.12,10,9,2,9,5,16,0.00,6,Snow,349
2012-11-29,43,31,19,26,22,16,92,62,43,30.27,30.21,30.17,10,10,10,15,6,22,0.00,0,,244
2012-11-30,37,34,30,25,14,2,70,47,27,30.56,30.44,30.23,10,10,10,9,5,,0.00,6,,10